OneWeb SL0182

operational
NORAD ID: 48228 Int'l Des: 2021-031 Owner: ONEWEBN Country: UK Constellation: oneweb
LEOCIRCULARPOLARONEWEB_TYPE

关于 OneWeb SL0182

正在加载描述...

实时位置

正在加载3D地球...

即将过境

高度历史

Altitude vs Time

uPlot chart will show altitude changes over time

两行轨道根数

1 48228U 21031U 25303.15422265 .00000183 00000-0 45843-3 0 9990
2 48228 87.9003 335.5444 0001649 91.0262 269.1057 13.14503715218215
Epoch: Oct 30, 2025 • Age: 23 hours

当前状态

高度 1208.0 km
速度 7.25 km/s
星下点 5.90°N, 77.9°E
发射日期 Apr 25, 2021
运行时间 4.5 years
类型 internet

技术详情

分类 Payload
质量 148.00 kg
干质量 140.00 kg
总质量 148.00 kg
长度 1.30 m
直径 1.00 m
跨度 5.00 m
形状 Trapezoid+2 pan
制造商 ONEWUS
平台类型 ARROW
阶段状态 In Orbit
所有者/国家 ONEWEBN/UK

大型星座

Loading constellations...